Theta_e
351 352 354 352 355 354 356 358 357 358 359 356 358 358 357 355 356 357 356 355 353 356 355 356 358 359 359 359 358 359 360 358 357 357 357 357 360 358 357 355 355 354 354
354 351 352 353 356 359 357 358 361 357 358 355 355 357 356 355 358 359 359 357 356 355 355 357 357 359 358 358 360 360 358 358 357 357 359 361 358 356 354 353 351 351 351
357 360 352 354 359 361 362 361 359 357 354 353 354 354 355 356 357 360 359 360 356 356 356 357 358 357 358 359 359 358 357 358 361 361 360 358 356 355 354 352 349 348 349
359 361 354 354 359 358 356 359 358 357 350 350 350 351 353 354 357 357 358 359 359 356 357 361 358 357 359 360 359 358 356 357 359 359 358 357 355 354 352 350 348 348 351
359 361 352 357 362 356 356 353 354 355 349 351 349 350 353 352 353 352 355 359 360 357 356 362 362 359 360 361 359 360 357 359 358 357 355 355 354 352 350 350 350 352 351
358 360 354 361 360 355 354 354 365 356 355 351 346 347 349 353 354 352 349 354 359 359 358 361 357 357 364 363 360 360 359 358 357 355 354 353 351 349 348 348 350 350 349
358 360 354 360 360 358 360 360 358 358 352 354 347 348 348 351 349 350 349 350 357 356 357 359 360 360 360 365 362 361 359 357 356 355 354 353 350 348 347 347 349 348 347
358 358 364 357 359 353 362 361 362 355 349 352 346 341 336 341 346 346 348 350 354 355 357 359 360 362 364 360 363 362 360 359 357 356 355 354 351 348 346 346 346 346 346
359 358 360 361 359 360 352 362 360 363 348 352 358 345 334 334 338 344 348 349 354 352 356 359 359 361 363 364 363 362 362 360 358 357 357 356 352 346 345 345 344 344 345
358 358 359 360 361 357 364 360 357 361 360 348 354 346 355 350 336 334 349 347 349 349 350 354 354 359 361 360 367 366 361 360 360 358 358 358 353 346 345 344 343 344 343
360 357 357 358 359 356 363 363 364 365 359 352 347 346 351 346 350 340 334 340 348 355 353 355 354 355 358 359 359 361 360 359 359 360 359 357 354 347 345 343 343 344 339
356 358 356 360 362 359 360 362 366 363 361 361 355 355 346 341 342 345 341 346 343 346 350 353 355 355 358 356 359 360 361 358 357 358 360 359 355 349 346 345 344 342 337
348 358 363 362 358 358 362 369 370 363 362 357 360 351 348 346 345 343 340 338 336 342 352 349 355 357 358 358 359 365 360 357 355 353 355 357 356 353 349 346 343 340 338
349 363 360 359 360 359 360 364 359 358 362 358 361 362 351 348 348 346 343 340 337 337 347 350 349 354 357 359 359 362 359 351 352 350 350 352 352 351 350 348 346 341 337
353 358 360 360 360 361 364 366 355 361 361 359 358 360 356 350 346 347 347 345 342 335 336 352 346 353 354 358 360 361 360 349 350 349 348 348 348 348 347 345 343 341 336
363 354 352 363 362 363 365 368 360 363 363 356 352 362 364 352 351 351 353 352 348 343 337 346 351 357 359 355 360 361 360 351 349 347 345 345 345 345 344 342 341 338 335
363 363 363 363 364 360 366 367 364 364 359 363 361 361 362 364 354 353 350 352 349 348 344 347 351 358 361 361 360 364 362 364 357 345 344 344 342 341 341 340 338 335 334
362 364 365 365 362 360 365 363 358 356 357 359 356 360 358 354 363 363 354 362 357 359 350 353 353 351 362 366 368 367 359 355 358 345 343 342 340 339 337 336 334 332 332
365 359 364 364 364 363 363 363 364 362 358 359 361 360 357 361 361 356 360 355 352 356 356 352 348 350 351 357 364 364 365 365 357 345 342 342 339 337 334 332 329 327 325
365 365 364 364 364 363 362 361 360 361 361 360 360 362 358 359 361 362 358 361 356 354 354 349 347 348 351 358 355 349 350 368 362 355 347 347 340 336 332 328 326 324 320
363 365 365 366 362 359 356 362 362 361 360 359 360 361 359 359 350 354 361 359 360 354 347 345 344 346 344 345 348 353 357 363 366 367 357 348 340 336 332 328 328 325 320
367 366 364 364 362 356 344 341 353 357 360 360 358 360 362 354 350 341 341 343 352 361 358 348 343 343 360 354 351 350 354 358 350 366 351 340 342 335 332 331 329 322 319
366 364 361 360 361 363 336 335 339 353 355 361 361 359 356 352 352 361 342 339 341 338 340 358 356 354 355 362 362 359 360 359 356 355 348 336 335 330 331 326 322 319 317
362 361 362 362 362 360 335 333 338 354 353 354 357 356 352 358 359 355 356 358 357 358 354 349 354 358 362 364 364 363 359 360 360 358 356 337 334 324 324 322 321 318 315
361 360 360 359 358 360 331 331 339 349 347 351 352 357 352 358 345 334 355 356 357 358 342 338 339 335 337 340 347 356 351 352 349 352 352 342 329 321 320 318 318 316 313
353 351 351 353 335 354 324 324 333 345 345 345 357 352 337 342 330 328 351 355 350 353 356 356 347 340 338 343 335 354 357 351 349 343 348 333 324 319 312 316 314 313 311
Wind_Speed
4 5 4 5 2 3 5 3 0 2 2 4 2 1 4 7 5 3 8 12 7 6 3 2 2 0 0 0 2 3 3 4 4 2 1 4 7 9 8 8 8 7 6
4 5 5 5 5 2 4 1 1 1 4 3 5 3 5 3 4 5 7 8 10 7 5 3 2 1 1 2 2 4 4 3 3 4 6 11 10 8 7 8 8 7 6
4 5 6 5 4 2 3 4 6 4 6 3 2 2 2 2 7 3 4 9 9 11 9 5 3 2 2 4 4 5 5 5 9 11 11 10 9 6 4 6 7 7 8
5 6 5 5 6 4 4 4 8 8 3 3 4 2 2 2 1 4 4 3 7 9 11 10 6 4 3 5 5 5 5 5 7 10 10 8 7 8 8 8 7 7 9
5 8 6 5 1 4 2 5 10 4 5 4 4 4 0 2 4 7 5 3 6 3 8 12 10 7 5 6 6 6 6 5 7 8 8 7 7 7 7 7 8 11 11
6 6 3 2 5 3 4 3 8 6 7 8 6 6 3 1 1 2 3 6 8 4 7 11 8 8 10 10 8 8 7 6 6 7 8 7 6 5 5 5 7 8 9
8 6 6 6 5 5 4 1 4 6 4 1 8 6 7 8 8 1 3 4 9 6 5 5 4 5 7 12 11 9 8 6 6 6 7 6 5 5 4 5 6 7 8
6 7 8 5 5 4 3 3 5 8 6 3 8 9 4 6 8 6 3 2 1 7 7 5 4 5 9 6 10 11 9 8 7 7 7 5 5 5 5 5 6 7 7
9 8 7 7 3 6 6 6 5 6 9 4 3 7 9 4 9 6 6 4 2 5 2 4 3 4 5 7 13 11 11 9 8 7 6 6 4 5 5 4 5 5 5
9 9 8 7 6 6 7 3 5 5 3 9 4 4 5 7 9 8 2 2 6 4 6 3 4 6 4 7 10 9 15 11 9 8 4 8 6 5 5 4 4 4 3
9 10 9 9 7 7 5 6 5 2 4 6 9 4 2 5 6 5 9 5 4 4 2 3 3 3 7 7 5 16 18 13 10 8 8 8 7 6 6 5 6 5 3
9 11 11 9 8 7 8 7 7 5 5 7 7 6 6 7 6 5 6 4 4 4 1 1 4 3 2 5 3 16 17 15 12 10 9 9 9 9 8 8 7 6 5
10 11 10 9 8 8 10 5 4 5 5 5 5 7 8 4 6 6 7 8 8 6 2 3 4 2 2 3 7 14 14 13 12 11 10 10 10 10 10 9 8 7 5
10 13 13 11 10 9 9 8 8 8 8 8 8 7 9 9 7 6 6 7 8 8 5 5 5 6 5 3 7 7 10 14 14 12 11 11 11 10 9 9 8 7 6
13 14 13 12 11 11 10 9 9 8 7 6 8 8 8 9 10 7 5 6 7 8 8 3 3 7 5 8 9 8 9 16 14 14 13 12 11 11 10 9 8 8 8
9 9 10 11 11 10 11 9 9 9 8 8 9 8 7 8 9 7 4 7 6 7 9 5 3 4 3 3 6 4 5 13 11 11 11 11 10 11 11 10 10 9 9
10 9 6 10 8 8 11 9 10 9 9 9 9 8 7 6 8 4 5 8 6 6 6 11 8 5 1 2 6 5 9 9 12 16 14 13 11 10 10 10 10 10 9
13 11 10 10 10 11 10 10 12 11 11 10 10 10 11 9 8 9 8 9 5 5 6 8 9 10 7 3 4 5 7 9 9 13 13 12 11 10 9 10 10 10 9
13 15 13 13 12 13 12 11 11 11 12 12 12 11 12 11 8 10 9 8 6 5 7 8 7 9 8 5 4 6 7 7 5 16 10 9 9 9 9 9 9 9 9
13 13 13 13 13 13 13 13 13 13 13 13 12 13 10 11 11 10 11 9 9 7 9 9 8 8 7 7 8 7 6 4 1 5 4 7 10 10 8 8 9 10 9
14 13 12 12 12 14 13 15 14 14 13 13 13 13 13 13 11 11 8 11 10 9 10 9 6 7 9 9 5 5 5 1 3 2 5 5 6 6 6 8 10 12 11
11 11 12 12 13 12 13 13 14 14 13 12 12 12 12 10 9 11 14 15 9 9 9 9 10 9 6 7 6 5 5 4 5 3 4 2 3 4 4 5 10 14 13
11 12 12 12 13 13 5 1 4 13 13 10 11 12 13 14 14 14 16 16 16 12 12 10 11 10 10 7 7 5 6 6 6 6 8 5 4 4 4 5 16 16 13
11 11 12 13 12 10 10 5 5 8 10 12 12 10 12 14 14 9 9 13 13 13 14 13 14 13 11 9 7 7 7 6 4 6 8 5 6 4 5 5 13 14 12
10 9 10 11 11 10 7 6 5 10 12 13 10 11 10 12 13 13 12 12 12 12 8 10 7 3 5 7 4 7 7 6 5 5 7 4 6 6 3 4 5 12 11
3 3 4 2 7 4 6 3 4 9 12 10 8 8 11 12 10 5 8 11 14 14 12 11 7 6 8 8 6 9 7 7 6 3 4 4 6 4 3 2 4 4 3
Wind_Direction
178 213 104 194 201 124 203 224 60 77 159 191 125 322 346 78 7 62 119 151 166 172 189 218 189 178 297 34 81 71 34 8 347 337 75 95 99 93 84 78 70 62 59
166 144 177 156 189 137 291 100 324 270 261 115 127 357 324 70 75 347 145 147 159 177 183 202 194 117 75 61 79 79 71 50 59 96 109 97 90 81 79 71 63 60 57
212 163 189 159 136 138 227 229 222 202 245 188 93 159 244 113 75 45 233 140 157 176 183 188 178 137 95 101 90 97 102 70 84 95 96 89 84 72 75 75 54 44 33
192 248 149 198 97 234 211 265 227 336 121 213 93 25 131 148 331 173 69 312 162 157 178 178 178 164 129 114 112 112 95 74 88 92 87 85 82 69 73 74 57 38 45
210 262 202 116 166 253 259 274 303 214 103 238 157 158 188 21 284 69 120 217 112 239 153 163 169 178 165 139 131 119 119 96 88 91 89 87 81 72 63 63 54 68 67
220 254 205 63 251 239 221 329 356 2 332 345 279 75 336 276 303 336 15 179 128 166 174 150 176 186 173 154 151 143 142 139 126 115 110 105 95 83 71 67 64 60 57
217 207 244 192 248 296 2 51 267 213 274 102 288 356 220 183 203 191 359 344 124 228 89 164 261 158 162 162 158 157 154 152 145 136 131 124 116 99 85 76 65 55 50
203 220 262 195 194 239 216 265 281 306 261 111 310 339 296 220 352 118 61 336 186 147 187 178 227 141 180 166 158 165 164 164 163 162 160 151 134 115 107 95 75 68 62
190 233 208 269 211 274 221 190 224 287 295 269 110 311 319 23 245 132 156 188 133 246 73 159 232 196 207 124 157 169 169 174 179 183 184 171 145 125 118 98 87 88 89
211 193 221 219 234 256 285 199 243 286 267 299 188 227 19 336 330 329 184 234 185 220 229 252 176 191 227 222 120 162 166 177 185 191 204 169 156 147 145 138 136 130 103
211 206 203 212 226 235 239 273 305 189 285 264 300 322 344 286 216 282 306 172 221 263 149 186 243 202 166 243 167 152 163 175 183 191 176 175 171 172 175 170 167 166 170
188 207 196 205 214 231 246 216 240 211 259 327 320 335 287 295 323 268 257 284 285 291 142 228 185 240 191 191 183 142 158 170 180 192 193 186 185 187 189 188 187 187 184
189 179 204 199 204 219 227 209 220 272 226 252 254 277 286 261 283 288 306 305 292 299 263 321 157 160 206 201 154 146 167 173 182 190 195 192 190 195 197 195 197 191 182
274 169 182 202 219 191 228 197 203 224 228 227 225 257 289 294 269 258 268 291 304 291 261 211 249 176 173 221 84 139 173 181 184 187 194 196 194 195 201 199 193 186 173
177 236 172 196 208 214 206 213 230 224 237 255 244 231 240 270 267 271 256 266 266 290 294 197 257 80 254 179 160 200 218 174 184 186 189 194 193 193 192 189 178 168 170
245 141 263 188 207 215 213 217 226 214 233 249 243 239 227 261 283 298 319 308 286 284 280 263 270 113 5 48 154 193 88 165 183 182 188 192 191 193 193 186 172 166 170
245 241 218 228 204 241 218 200 250 275 200 238 254 284 227 260 277 275 356 294 256 263 299 287 345 12 45 270 270 242 169 207 181 186 185 182 186 192 191 184 172 167 171
229 228 217 219 225 219 237 208 227 231 251 237 235 250 259 236 232 261 260 243 250 260 264 283 299 304 298 235 232 247 281 282 148 175 170 183 177 183 187 181 174 172 168
223 229 214 219 216 222 223 227 222 227 239 237 223 230 240 253 249 261 273 271 216 244 228 245 269 266 272 266 266 252 258 247 154 147 161 162 160 169 174 169 168 161 152
221 226 231 219 222 225 223 232 225 228 229 237 229 229 230 242 228 237 247 256 264 246 234 237 250 260 239 233 224 246 239 205 194 168 87 155 155 163 164 150 147 144 143
217 227 230 239 233 235 230 219 230 232 222 238 247 231 236 245 228 227 230 236 251 225 247 247 220 255 260 238 178 237 249 265 245 207 135 137 141 153 154 158 159 158 143
232 223 228 235 239 246 242 213 212 231 232 241 244 247 262 254 225 210 213 240 252 236 254 275 279 276 285 284 259 245 225 240 237 197 128 108 150 145 155 182 160 146 149
225 232 236 239 236 237 144 195 268 245 252 228 238 254 247 244 230 226 215 221 237 232 238 250 250 257 278 287 298 277 260 252 245 160 159 151 172 149 163 118 137 147 152
240 237 240 234 239 245 153 219 209 241 249 258 258 259 246 261 270 264 239 226 228 233 231 233 238 251 253 259 261 254 259 260 261 179 201 157 159 120 106 117 143 148 149
233 243 247 248 242 247 166 176 201 254 244 246 246 257 257 254 262 268 274 260 251 243 248 242 232 212 164 152 208 241 234 226 224 208 189 131 153 122 121 125 136 147 143
269 273 274 2 40 288 78 75 226 255 260 258 255 260 264 264 296 301 259 262 260 256 252 232 216 219 222 198 197 241 239 238 233 210 176 108 129 137 131 75 119 110 136